Current Version              Previous Version:    01  02  03  04  05  06  07  08  09  10  11  12  13  14  15  16  17  18  19  20  21  22  23  24  25  26  27  28  29  30  
   31  32  33  34  35  36  37  38  39  40  41  42  43  44  45  46  47  48  49  50  51  52  53  54  55  56  57  58  59  60  

[Printable]
916
ASUS44 KLUB 222310
RWRTX
WEST TEXAS WEATHER ROUNDUP
NATIONAL WEATHER SERVICE LUBBOCK TX
600 PM CDT TUE JUL 22 2014

NOTE: "FAIR" INDICATES FEW OR NO CLOUDS BELOW 12,000 FEET WITH NO
SIGNIFICANT WEATHER AND/OR OBSTRUCTIONS TO VISIBILITY.

TXZ004-006>008-010-012-014-016-OKZ002-230000-
TEXAS PANHANDLE/OKLAHOMA PANHANDLE

CITY           SKY/WX    TMP DP  RH WIND       PRES   REMARKS
AMARILLO       MOSUNNY   90  66  45 SE16      30.16S
BORGER         PTSUNNY   88  65  46 W7        30.14R
CANADIAN       MOSUNNY   97  56  25 S10       30.09S HX  95
DALHART        SUNNY     93  59  31 SW7       30.19F
DUMAS          MOSUNNY   91  65  42 SE12      30.16S
GUYMON         SUNNY     97  62  31 SE9       30.10S HX  98
HEREFORD         N/A    N/A N/A N/A MISG        N/A
PAMPA          MOSUNNY   89  60  38 SE12      30.16F
PERRYTON       PTSUNNY   85  71  63 S6        30.14S
$$

TXZ026-029-035-045-048-230000-
SOUTHERN PANHANDLE/SOUTH PLAINS/ROLLING PLAINS

CITY           SKY/WX    TMP DP  RH WIND       PRES   REMARKS
CHILDRESS      SUNNY     96  63  33 S14       30.06F HX  97
SEMINOLE       PTSUNNY   93  51  24 E10       30.14S
LUBBOCK        PTSUNNY   81  64  56 W10       30.16F
PLAINVIEW      PTSUNNY   90  65  42 S16       30.15S
SNYDER         SUNNY     96  61  30 SE7       30.08F HX  97
$$

TXZ052-054-060>062-072-078-127-140-154-169-230000-
PERMIAN BASIN/CONCHO VALLEY/BIG COUNTRY/EDWARDS PLATEAU

CITY           SKY/WX    TMP DP  RH WIND       PRES   REMARKS
ABILENE        SUNNY     97  63  32 E9        30.05F HX  98
BIG SPRING     CLOUDY   100  58  25 E12       30.09  HX  99
BRADY          SUNNY     93  64  38 E8        30.06S HX  95
BROWNWOOD      LGT RAIN  93  66  40 E8        30.04F HX  96
JUNCTION       MOSUNNY   95  62  33 E6        30.04S HX  96
MIDLAND        PTSUNNY   92  61  35 CALM      30.09F
ODESSA         MOSUNNY   94  48  20 E14       30.10S
SAN ANGELO     SUNNY     97  63  32 E14       30.03F HX  98
SONORA         SUNNY     95  59  30 CALM      30.07F
SWEETWATER     SUNNY     98  56  25 E14       30.10S HX  96
WINK           MOSUNNY  101  55  21 E18       30.04F HX  99
$$

TXZ055-058-074-075-080-082-230000-
FAR WEST/SOUTHWEST MOUNTAINS/TRANS PECOS

CITY           SKY/WX    TMP DP  RH WIND       PRES   REMARKS
ALPINE         PTSUNNY   89  56  32 SE9       30.21S
DRYDEN           N/A    101  60  25 E15G24    30.01S HX 101
EL PASO        TSTM      82  64  54 NE41G51   30.07R BLWGDUST
FORT STOCKTON  MOSUNNY   96  59  29 E14       30.07F HX  95
GUADALUPE PASS MOSUNNY   87  53  31 NE22G29   30.26S
MARFA          PTSUNNY   88  59  37 SE13G18   30.20F
PECOS          SUNNY     99  55  22 E13       30.03F HX  97
PRESIDIO       FAIR     102  53  19 NE14      29.97F HX 100
$$

TXZ014-016-019-021>030-083-230000
TEXAS TECH WEST TEXAS MESONET/TEXAS PANHANDLE/NORTHERN SOUTH PLAINS

CITY           SKY/WX    TMP DP  RH WIND       PRES   REMARKS
ABERNATHY 5ENE   N/A     87  64  46 SW13      30.17S
AMARILLO 9NNE    N/A     79  69  72 SW14      30.15R
AMARILLO 7SSE    N/A     91  68  46 S12       30.16F HX  95
AMHERST 1NE      N/A     80  66  61 S7        30.18F
BOOTLEG 11WNW    N/A     88  65  46 SE9       30.24S
CANADIAN 6E      N/A     91  63  38 SE12      30.09S
CAPROCK CYN SP   N/A     94  62  35 SE9       30.11S
CHILDRESS 2NNE   N/A     97  60  29 SE10      30.06S HX  97
CLARENDON 2WSW   N/A     91  62  39 SE8       30.12S
CLAUDE 12SW      N/A     74  63  69 S17       30.17R
DIMMITT 2NE      N/A     92  61  35 SE12      30.19S
FLOYDADA 2NNE    N/A     87  63  44 S7        30.15S
FRIONA 2NE       N/A     91  59  34 SE9       30.19F
GOODLETT 3W      N/A     97  61  30 E14       30.03F HX  97
HART 3N          N/A     89  67  48 SE12      30.20R
HEREFORD 2NW     N/A     91  59  34 SE9       30.18S
MCLEAN 1E        N/A     92  60  34 SE9       30.12S
MEMPHIS 1NE      N/A     97  59  28 SE8       30.07S HX  96
MULESHOE 2SSW    N/A     82  62  50 SE24      30.20R
OLTON 6S         N/A     80  62  53 SW14      30.17F
PALO DURO SP     N/A     91  63  40 S12       30.16S
PAMPA 2E         N/A     89  64  44 SE8       30.16R
PLAINVIEW 1S     N/A     90  63  40 S14       30.15S
SILVERTON 7ESE   N/A     91  64  41 SE10      30.15R
TULIA 2ENE       N/A     90  66  45 S14       30.16F
TURKEY 2WSW      N/A     95  62  32 SE10      30.09S HX  96
UMBARGER 3NNE    N/A     89  65  45 SE9       30.18S
$$

TXZ033>036-039>041-045>048-230000
TEXAS TECH WEST TEXAS MESONET/SOUTH PLAINS

CITY           SKY/WX    TMP DP  RH WIND       PRES   REMARKS
AIKEN 3WSW       N/A     87  68  53 S8        30.17S
ANDREWS 2NE      N/A     93  56  27 E15       30.11F
ANTON 6SSW       N/A     72  67  84 NW6       30.16F
BROWNFIELD 2S    N/A     81  64  55 N6        30.16S
DENVR CTY 7WNW   N/A     89  54  29 E13       30.16R
GAIL 2ESE        N/A     95  56  26 S3        30.08S
LAMESA 2SE       N/A     92  58  32 SE6       30.12F
LEVELLAND 4S     N/A     77  68  74 N5        30.17F
LUBBOCK 3WNW     N/A     79  62  56 W6        30.16F
MORTON 1ENE      N/A     82  61  48 E12       30.19R
ODONNELL 1N      N/A     91  51  24 E8        30.13S
PLAINS 3N        N/A     91  57  31 E16       30.18R
RALLS 1SE        N/A     92  64  39 S7        30.14F
REESE CENTER     N/A     76  64  67 NW7       30.16F
SEAGRAVES 1SW    N/A     85  61  44 N10       30.15R
SEMINOLE 2NNE    N/A     92  52  25 E14       30.13S
SLATON 2NE       N/A     88  59  37 S7        30.14F
SNYDER 3E        N/A    100  58  25 SE12      30.06F HX  99
SUNDOWN 8SW      N/A     88  59  36 E12       30.18R
TAHOKA 3NNE      N/A     90  60  36 E5        30.14S
WOLFFORTH 6SSW   N/A     80  64  58 NW6       30.16F
$$

TXZ031-032-036>038-042>044-230000-
TEXAS TECH WEST TEXAS MESONET/ROLLING PLAINS

CITY           SKY/WX    TMP DP  RH WIND       PRES   REMARKS
ASPERMONT 3NE    N/A     98  64  32 E7        30.04S HX 100
FLUVANNA 3WNW    N/A     94  58  29 SE14      30.09S
GRAHAM 5SSW      N/A     92  57  30 SE7       30.11F
GUTHRIE 10WSW    N/A     97  61  30 E9        30.05S HX  97
HASKELL 1NW      N/A     97  56  25 E3        30.03S HX  95
JAYTON 1SSE      N/A     98  62  30 E12       30.05S HX  99
KNOX CITY 3NW    N/A     99  56  23 SE6       30.02F HX  97
LK A HENRY 1NW   N/A    100  57  24 E7        30.05F HX  98
NORTHFIELD 1S    N/A     97  63  32 SE8       30.06S HX  98
ODELL 4ENE       N/A     96  63  33 SE7       30.04S HX  98
PADUCAH 10SW     N/A     96  61  30 E8        30.06S HX  97
POST 1NE         N/A     95  56  26 SE2       30.10S
RRING SPRGS 3N   N/A     94  57  29 SE10      30.11S
SEYMOUR 3NW      N/A     98  60  28 E9        30.02S HX  97
SPUR 1W          N/A     95  58  28 E8        30.07S
WEINERT 2NNE     N/A     98  62  30 SE7       30.03F HX  98
WHITE RVR 6NE    N/A     95  61  32 SE6       30.10S HX  95
$$

TXZ052-054-060>062-072-078-127-140-154-169-230000-
TEXAS TECH WEST TEXAS MESONET/PERMIAN BASIN/
CONCHO VALLEY/BIG COUNTRY/EDWARDS PLATEAU

CITY           SKY/WX    TMP DP  RH WIND       PRES   REMARKS
COYANOSA 2N      N/A    100  57  24 E13       30.04S HX  99
JUNCTION 1SSW    N/A     96  63  33 SE3       30.04S HX  97
MERTZON 3NNE     N/A     97  62  31 E13       30.05F HX  98
SAN ANGELO 7NW   N/A     96  61  31 E12       30.04F HX  97
STRLNG CT 4WSW   N/A     97  60  29 E9        30.06F HX  97
ST LAWRNCE 5SW   N/A     94  55  26 SE6       30.08F
SWEETWATR 11SW   N/A     96  59  29 SE10      30.09S HX  96
WALL 1E          N/A     95  62  32 E12       30.04F HX  96
$$

TXZ055-058-074-075-080-082-230000-
TEXAS TECH WEST TEXAS MESONET/FAR WEST/SOUTHWEST MOUNTAINS/TRANS PECOS

CITY           SKY/WX    TMP DP  RH WIND       PRES   REMARKS
GUADLPE MTN NP   N/A     85  52  31 E15       30.28S
$$